Location: Anna District 4 Election Precinct
(37.4833°N, 89.2195°W)
Time: 14:32:47
(UTC+00:00)

Helios 1A Rocket - Pass Details

Date: 29 October 2020
Orbit: 563 x 586 km, 98.3° (Epoch: 03 December)

Event Time Altitude Azimuth Distance (km) Brightness Sun altitude
Rises 23:35:44 0° 135° (SE) 2,795 6.1 -7.4°
Reaches altitude 10° 23:38:14 10° 120° (ESE) 1,896 5.1 -7.9°
Maximum altitude 23:41:25 22° 69° (ENE) 1,280 4.1 -8.5°
Drops below altitude 10° 23:44:37 10° 18° (NNE) 1,896 5.3 -9.2°
Sets 23:47:06 0° 3° (N) 2,795 6.3 -9.7°
